TimeEDT,TemperatureF,Dew PointF,Humidity,Sea Level PressureIn,VisibilityMPH,Wind Direction,Wind SpeedMPH,Gust SpeedMPH,PrecipitationIn,Events,Conditions,WindDirDegrees,DateUTC
12:53 AM,69.1,66.9,93,29.99,10.0,North,5.8,-,N/A,,Clear,350,2013-03-20 04:53:00
1:53 AM,69.1,66.9,93,29.97,10.0,North,3.5,-,N/A,,Clear,360,2013-03-20 05:53:00
2:53 AM,69.1,66.9,93,29.95,10.0,NNW,5.8,-,N/A,,Clear,340,2013-03-20 06:53:00
3:53 AM,70.0,68.0,93,29.94,10.0,NNW,3.5,-,N/A,,Clear,330,2013-03-20 07:53:00
4:53 AM,68.0,66.9,96,29.92,10.0,North,4.6,-,N/A,,Clear,350,2013-03-20 08:53:00
5:53 AM,68.0,66.0,93,29.94,10.0,North,3.5,-,N/A,,Clear,350,2013-03-20 09:53:00
6:53 AM,66.9,64.9,93,29.95,10.0,North,4.6,-,N/A,,Clear,360,2013-03-20 10:53:00
7:53 AM,66.9,64.9,93,29.96,10.0,NNE,4.6,-,N/A,,Clear,30,2013-03-20 11:53:00
8:53 AM,72.0,66.0,81,29.98,10.0,NE,4.6,-,N/A,,Clear,40,2013-03-20 12:53:00
9:53 AM,73.9,66.0,76,30.00,10.0,ENE,5.8,-,N/A,,Clear,70,2013-03-20 13:53:00
10:53 AM,75.0,64.9,71,30.01,10.0,North,10.4,-,N/A,,Clear,10,2013-03-20 14:53:00
11:53 AM,77.0,66.9,71,29.99,10.0,ENE,5.8,-,N/A,,Clear,60,2013-03-20 15:53:00
12:53 PM,75.0,68.0,79,29.97,10.0,SE,8.1,-,N/A,,Clear,130,2013-03-20 16:53:00
1:53 PM,75.9,68.0,76,29.96,10.0,SE,6.9,-,N/A,,Clear,130,2013-03-20 17:53:00
2:53 PM,75.0,66.9,76,29.93,10.0,SSE,5.8,-,N/A,,Clear,150,2013-03-20 18:53:00
3:53 PM,75.0,66.9,76,29.91,10.0,Variable,3.5,-,N/A,,Mostly Cloudy,0,2013-03-20 19:53:00
4:16 PM,75.2,66.2,73,29.89,10.0,South,6.9,-,N/A,,Scattered Clouds,190,2013-03-20 20:16:00
4:53 PM,75.0,66.0,73,29.89,10.0,WSW,5.8,-,N/A,,Clear,240,2013-03-20 20:53:00
5:53 PM,75.0,66.0,73,29.87,10.0,SSW,8.1,-,N/A,,Clear,200,2013-03-20 21:53:00
6:53 PM,73.9,66.0,76,29.88,10.0,WSW,5.8,-,N/A,,Clear,240,2013-03-20 22:53:00
7:53 PM,73.0,66.0,79,29.89,10.0,West,4.6,-,N/A,,Clear,270,2013-03-20 23:53:00
8:53 PM,73.9,68.0,82,29.93,10.0,NW,8.1,-,N/A,,Clear,320,2013-03-21 00:53:00
9:53 PM,73.0,69.1,87,29.97,10.0,NNW,8.1,-,N/A,,Scattered Clouds,330,2013-03-21 01:53:00
10:53 PM,73.0,66.9,81,29.97,10.0,NNW,19.6,26.5,N/A,,Scattered Clouds,340,2013-03-21 02:53:00
11:03 PM,71.6,64.4,78,29.97,10.0,NNW,23.0,29.9,N/A,,Mostly Cloudy,330,2013-03-21 03:03:00
11:08 PM,71.6,64.4,78,29.97,10.0,NNW,19.6,29.9,N/A,,Scattered Clouds,330,2013-03-21 03:08:00
11:53 PM,70.0,64.0,81,29.90,10.0,SSE,4.6,-,0.00,Rain,Light Rain,160,2013-03-21 03:53:00